| time (UTC) | temp F | wind direction | speed MPH | gust MPH | rain 1hr in | rain 24hr in | rain mn in | humidity % | barometer mb |
| 20260504213416 | 78 | 110 | 3.0 | 12.0 | 0.00 | 0.00 | 0.00 | 33 | 1013.0 |
| 20260504212916 | 78 | 110 | 11.0 | 13.0 | 0.00 | 0.00 | 0.00 | 33 | 1013.0 |
| 20260504212416 | 78 | 110 | 7.0 | 13.0 | 0.00 | 0.00 | 0.00 | 33 | 1012.9 |
| 20260504211916 | 78 | 110 | 9.0 | 14.0 | 0.00 | 0.00 | 0.00 | 33 | 1012.9 |
| 20260504211416 | 78 | 110 | 12.0 | 16.0 | 0.00 | 0.00 | 0.00 | 33 | 1012.9 |
| 20260504210916 | 78 | 110 | 3.0 | 14.0 | 0.00 | 0.00 | 0.00 | 33 | 1012.8 |
| 20260504210417 | 79 | 110 | 8.0 | 17.0 | 0.00 | 0.00 | 0.00 | 33 | 1012.7 |
| 20260504205916 | 78 | 110 | 8.0 | 11.0 | 0.00 | 0.00 | 0.00 | 33 | 1012.8 |
| 20260504205416 | 79 | 110 | 9.0 | 14.0 | 0.00 | 0.00 | 0.00 | 32 | 1012.7 |
| 20260504204916 | 79 | 110 | 5.0 | 15.0 | 0.00 | 0.00 | 0.00 | 32 | 1012.5 |
| 20260504204416 | 79 | 110 | 10.0 | 12.0 | 0.00 | 0.00 | 0.00 | 32 | 1012.7 |
| 20260504203916 | 79 | 110 | 9.0 | 15.0 | 0.00 | 0.00 | 0.00 | 32 | 1012.7 |
| 20260504203416 | 79 | 110 | 7.0 | 11.0 | 0.00 | 0.00 | 0.00 | 32 | 1012.7 |
| 20260504202916 | 78 | 110 | 7.0 | 12.0 | 0.00 | 0.00 | 0.00 | 33 | 1012.8 |
| 20260504202417 | 78 | 110 | 10.0 | 16.0 | 0.00 | 0.00 | 0.00 | 33 | 1012.7 |
| 20260504201916 | 78 | 110 | 9.0 | 14.0 | 0.00 | 0.00 | 0.00 | 32 | 1012.6 |
| 20260504201415 | 77 | 110 | 5.0 | 8.0 | 0.00 | 0.00 | 0.00 | 33 | 1012.7 |
| 20260504200916 | 78 | 110 | 7.0 | 12.0 | 0.00 | 0.00 | 0.00 | 32 | 1012.8 |
| 20260504200416 | 78 | 110 | 11.0 | 13.0 | 0.00 | 0.00 | 0.00 | 32 | 1013.0 |
| 20260504195916 | 79 | 110 | 8.0 | 13.0 | 0.00 | 0.00 | 0.00 | 30 | 1013.1 |
| 20260504195416 | 79 | 110 | 7.0 | 19.0 | 0.00 | 0.00 | 0.00 | 29 | 1013.1 |
| 20260504194916 | 79 | 110 | 10.0 | 16.0 | 0.00 | 0.00 | 0.00 | 29 | 1013.2 |
| 20260504194416 | 79 | 110 | 10.0 | 18.0 | 0.00 | 0.00 | 0.00 | 30 | 1013.1 |
| 20260504193916 | 79 | 110 | 12.0 | 16.0 | 0.00 | 0.00 | 0.00 | 29 | 1013.1 |
| 20260504193416 | 80 | 110 | 11.0 | 14.0 | 0.00 | 0.00 | 0.00 | 29 | 1013.1 |
| 20260504192916 | 80 | 110 | 4.0 | 14.0 | 0.00 | 0.00 | 0.00 | 29 | 1012.9 |
| 20260504192416 | 80 | 110 | 8.0 | 17.0 | 0.00 | 0.00 | 0.00 | 29 | 1012.9 |
| 20260504191916 | 79 | 110 | 10.0 | 12.0 | 0.00 | 0.00 | 0.00 | 31 | 1012.7 |
| 20260504191416 | 79 | 110 | 11.0 | 12.0 | 0.00 | 0.00 | 0.00 | 31 | 1012.7 |
| 20260504190915 | 79 | 110 | 9.0 | 17.0 | 0.00 | 0.00 | 0.00 | 30 | 1012.6 |
| 20260504190415 | 79 | 110 | 4.0 | 15.0 | 0.00 | 0.00 | 0.00 | 30 | 1012.6 |
| 20260504185916 | 79 | 110 | 7.0 | 13.0 | 0.00 | 0.00 | 0.00 | 30 | 1012.6 |
| 20260504185416 | 78 | 110 | 7.0 | 15.0 | 0.00 | 0.00 | 0.00 | 30 | 1012.8 |
| 20260504184916 | 79 | 110 | 9.0 | 14.0 | 0.00 | 0.00 | 0.00 | 30 | 1013.0 |
| 20260504184416 | 78 | 110 | 15.0 | 17.0 | 0.00 | 0.00 | 0.00 | 30 | 1013.1 |
| 20260504183916 | 78 | 110 | 8.0 | 13.0 | 0.00 | 0.00 | 0.00 | 30 | 1013.0 |
| 20260504183417 | 77 | 110 | 14.0 | 18.0 | 0.00 | 0.00 | 0.00 | 30 | 1013.1 |
| 20260504182915 | 78 | 110 | 11.0 | 17.0 | 0.00 | 0.00 | 0.00 | 29 | 1012.9 |
| 20260504182416 | 78 | 110 | 8.0 | 22.0 | 0.00 | 0.00 | 0.00 | 29 | 1013.0 |
| 20260504181916 | 77 | 110 | 8.0 | 16.0 | 0.00 | 0.00 | 0.00 | 30 | 1013.1 |
| 20260504181416 | 77 | 110 | 7.0 | 14.0 | 0.00 | 0.00 | 0.00 | 30 | 1012.9 |
| 20260504180917 | 77 | 110 | 4.0 | 13.0 | 0.00 | 0.00 | 0.00 | 30 | 1012.9 |
| 20260504180415 | 78 | 110 | 8.0 | 16.0 | 0.00 | 0.00 | 0.00 | 29 | 1012.8 |
| 20260504175915 | 77 | 110 | 3.0 | 14.0 | 0.00 | 0.00 | 0.00 | 30 | 1013.0 |
| 20260504175416 | 77 | 110 | 3.0 | 15.0 | 0.00 | 0.00 | 0.00 | 29 | 1013.0 |
| 20260504174916 | 77 | 110 | 4.0 | 14.0 | 0.00 | 0.00 | 0.00 | 31 | 1013.2 |
| 20260504174416 | 77 | 110 | 7.0 | 13.0 | 0.00 | 0.00 | 0.00 | 30 | 1013.1 |
| 20260504173915 | 78 | 110 | 2.0 | 15.0 | 0.00 | 0.00 | 0.00 | 28 | 1013.2 |
| 20260504173416 | 78 | 110 | 10.0 | 19.0 | 0.00 | 0.00 | 0.00 | 29 | 1013.3 |
| 20260504172916 | 78 | 110 | 12.0 | 22.0 | 0.00 | 0.00 | 0.00 | 25 | 1013.4 |
| 20260504172416 | 78 | 110 | 8.0 | 19.0 | 0.00 | 0.00 | 0.00 | 28 | 1013.6 |
| 20260504171916 | 77 | 110 | 8.0 | 13.0 | 0.00 | 0.00 | 0.00 | 30 | 1013.7 |
| 20260504171416 | 77 | 110 | 4.0 | 14.0 | 0.00 | 0.00 | 0.00 | 31 | 1013.5 |
| 20260504170916 | 77 | 110 | 13.0 | 16.0 | 0.00 | 0.00 | 0.00 | 31 | 1013.6 |
| 20260504170416 | 78 | 110 | 10.0 | 16.0 | 0.00 | 0.00 | 0.00 | 30 | 1013.6 |
| 20260504160416 | 75 | 110 | 7.0 | 12.0 | 0.00 | 0.00 | 0.00 | 38 | 1013.5 |
| 20260504150916 | 73 | 110 | 9.0 | 10.0 | 0.00 | 0.00 | 0.00 | 41 | 1013.0 |
| 20260504150415 | 73 | 110 | 5.0 | 12.0 | 0.00 | 0.00 | 0.00 | 41 | 1012.9 |
| 20260504140915 | 72 | 110 | 2.0 | 7.0 | 0.00 | 0.00 | 0.00 | 41 | 1012.7 |
| 20260504140415 | 72 | 110 | 4.0 | 7.0 | 0.00 | 0.00 | 0.00 | 41 | 1012.7 |
| 20260504130417 | 71 | 110 | 0.0 | 4.0 | 0.00 | 0.00 | 0.00 | 41 | 1012.1 |
| 20260504110415 | 71 | 110 | 1.0 | 3.0 | 0.00 | 0.00 | 0.00 | 41 | 1011.9 |
| 20260504100417 | 73 | 110 | 4.0 | 8.0 | 0.00 | 0.00 | 0.00 | 40 | 1012.3 |
| 20260504081915 | 72 | 110 | 0.0 | 2.0 | 0.00 | 0.00 | 0.00 | 38 | 1011.7 |
| 20260504081416 | 73 | 110 | 0.0 | 1.0 | 0.00 | 0.00 | 0.00 | 38 | 1011.7 |
| 20260504080916 | 73 | 110 | 0.0 | 2.0 | 0.00 | 0.00 | 0.00 | 38 | 1011.8 |
| 20260504080415 | 73 | 110 | 0.0 | 0.0 | 0.00 | 0.00 | 0.00 | 38 | 1011.8 |
| 20260504050416 | 78 | 110 | 8.0 | 11.0 | 0.00 | 0.00 | 0.00 | 23 | 1011.9 |
| 20260504045915 | 79 | 110 | 3.0 | 9.0 | 0.00 | 0.00 | 0.00 | 23 | 1011.8 |
| 20260504045415 | 79 | 110 | 4.0 | 9.0 | 0.00 | 0.00 | 0.00 | 23 | 1011.7 |
| 20260504044916 | 79 | 110 | 2.0 | 11.0 | 0.00 | 0.00 | 0.00 | 23 | 1011.8 |
| 20260504044415 | 79 | 110 | 5.0 | 11.0 | 0.00 | 0.00 | 0.00 | 22 | 1011.8 |
| 20260504043915 | 79 | 110 | 7.0 | 9.0 | 0.00 | 0.00 | 0.00 | 22 | 1011.6 |
| 20260504043415 | 80 | 110 | 7.0 | 13.0 | 0.00 | 0.00 | 0.00 | 22 | 1011.4 |
| 20260504042915 | 80 | 110 | 1.0 | 12.0 | 0.00 | 0.00 | 0.00 | 21 | 1011.5 |
| 20260504042416 | 80 | 110 | 5.0 | 15.0 | 0.00 | 0.00 | 0.00 | 21 | 1011.3 |
| 20260504041916 | 80 | 110 | 8.0 | 18.0 | 0.00 | 0.00 | 0.00 | 21 | 1011.2 |
| 20260504041416 | 81 | 110 | 8.0 | 10.0 | 0.00 | 0.00 | 0.00 | 20 | 1011.2 |
| 20260504040915 | 81 | 110 | 5.0 | 15.0 | 0.00 | 0.00 | 0.00 | 20 | 1011.1 |
| 20260504040415 | 81 | 110 | 4.0 | 10.0 | 0.00 | 0.00 | 0.00 | 19 | 1011.0 |
| 20260504035916 | 81 | 110 | 4.0 | 15.0 | 0.00 | 0.00 | 0.00 | 19 | 1010.8 |
| 20260504035416 | 81 | 110 | 5.0 | 12.0 | 0.00 | 0.00 | 0.00 | 19 | 1010.7 |
| 20260504034915 | 82 | 110 | 4.0 | 15.0 | 0.00 | 0.00 | 0.00 | 18 | 1010.4 |
| 20260504034415 | 82 | 110 | 15.0 | 15.0 | 0.00 | 0.00 | 0.00 | 18 | 1010.3 |
| 20260504033915 | 82 | 110 | 11.0 | 17.0 | 0.00 | 0.00 | 0.00 | 18 | 1010.2 |
| 20260504033415 | 82 | 110 | 10.0 | 13.0 | 0.00 | 0.00 | 0.00 | 18 | 1010.2 |
| 20260504032915 | 83 | 110 | 4.0 | 15.0 | 0.00 | 0.00 | 0.00 | 18 | 1010.0 |
| 20260504032415 | 83 | 110 | 10.0 | 19.0 | 0.00 | 0.00 | 0.00 | 18 | 1009.9 |
| 20260504031915 | 83 | 110 | 8.0 | 13.0 | 0.00 | 0.00 | 0.00 | 18 | 1009.8 |
| 20260504031415 | 83 | 110 | 9.0 | 14.0 | 0.00 | 0.00 | 0.00 | 18 | 1009.7 |
| 20260504030915 | 83 | 110 | 5.0 | 14.0 | 0.00 | 0.00 | 0.00 | 17 | 1009.7 |
| 20260504030416 | 84 | 110 | 11.0 | 18.0 | 0.00 | 0.00 | 0.00 | 17 | 1009.6 |
| 20260504025916 | 84 | 110 | 5.0 | 14.0 | 0.00 | 0.00 | 0.00 | 17 | 1009.4 |
| 20260504025415 | 84 | 110 | 5.0 | 13.0 | 0.00 | 0.00 | 0.00 | 17 | 1009.2 |
| 20260504024915 | 84 | 110 | 4.0 | 9.0 | 0.00 | 0.00 | 0.00 | 16 | 1009.0 |
| 20260504024416 | 85 | 110 | 7.0 | 11.0 | 0.00 | 0.00 | 0.00 | 16 | 1009.0 |
| 20260504023915 | 85 | 110 | 8.0 | 14.0 | 0.00 | 0.00 | 0.00 | 16 | 1008.9 |
| 20260504023421 | 85 | 110 | 13.0 | 15.0 | 0.00 | 0.00 | 0.00 | 16 | 1008.7 |
| 20260504022916 | 85 | 110 | 5.0 | 12.0 | 0.00 | 0.00 | 0.00 | 15 | 1008.7 |
| 20260504022416 | 86 | 110 | 7.0 | 9.0 | 0.00 | 0.00 | 0.00 | 15 | 1008.6 |
| 20260504021917 | 86 | 110 | 10.0 | 17.0 | 0.00 | 0.00 | 0.00 | 14 | 1008.6 |
| 20260504021417 | 87 | 110 | 11.0 | 18.0 | 0.00 | 0.00 | 0.00 | 14 | 1008.5 |
| 20260504020915 | 87 | 110 | 7.0 | 16.0 | 0.00 | 0.00 | 0.00 | 14 | 1008.2 |
| 20260504020416 | 87 | 110 | 9.0 | 21.0 | 0.00 | 0.00 | 0.00 | 14 | 1008.2 |
| 20260504015915 | 88 | 110 | 10.0 | 21.0 | 0.00 | 0.00 | 0.00 | 13 | 1008.0 |
| 20260504015415 | 88 | 110 | 9.0 | 19.0 | 0.00 | 0.00 | 0.00 | 13 | 1008.0 |
| 20260504014916 | 89 | 110 | 7.0 | 13.0 | 0.00 | 0.00 | 0.00 | 12 | 1007.9 |
| 20260504014416 | 89 | 110 | 9.0 | 18.0 | 0.00 | 0.00 | 0.00 | 12 | 1007.7 |
| 20260504013915 | 89 | 110 | 5.0 | 19.0 | 0.00 | 0.00 | 0.00 | 12 | 1007.8 |
| 20260504013415 | 89 | 110 | 9.0 | 18.0 | 0.00 | 0.00 | 0.00 | 12 | 1007.8 |
| 20260504012915 | 90 | 110 | 17.0 | 17.0 | 0.00 | 0.00 | 0.00 | 12 | 1007.8 |
| 20260504012415 | 90 | 110 | 4.0 | 23.0 | 0.00 | 0.00 | 0.00 | 12 | 1007.8 |
| 20260504011915 | 91 | 110 | 11.0 | 18.0 | 0.00 | 0.00 | 0.00 | 12 | 1007.8 |
| 20260504011415 | 91 | 110 | 9.0 | 17.0 | 0.00 | 0.00 | 0.00 | 12 | 1007.7 |
| 20260504010915 | 92 | 110 | 9.0 | 19.0 | 0.00 | 0.00 | 0.00 | 12 | 1007.8 |
| 20260504010416 | 92 | 110 | 7.0 | 18.0 | 0.00 | 0.00 | 0.00 | 11 | 1007.8 |
| 20260504005915 | 93 | 110 | 4.0 | 18.0 | 0.00 | 0.00 | 0.00 | 11 | 1007.8 |
| 20260504005415 | 93 | 110 | 5.0 | 15.0 | 0.00 | 0.00 | 0.00 | 11 | 1007.8 |
| 20260504004915 | 93 | 110 | 8.0 | 16.0 | 0.00 | 0.00 | 0.00 | 11 | 1007.7 |
| 20260504004415 | 93 | 110 | 8.0 | 14.0 | 0.00 | 0.00 | 0.00 | 14 | 1007.8 |
| 20260504003916 | 93 | 110 | 7.0 | 14.0 | 0.00 | 0.00 | 0.00 | 14 | 1007.8 |
| 20260504003416 | 93 | 110 | 5.0 | 14.0 | 0.00 | 0.00 | 0.00 | 14 | 1007.7 |
| 20260504002915 | 93 | 110 | 8.0 | 13.0 | 0.00 | 0.00 | 0.00 | 13 | 1007.7 |
| 20260504002415 | 93 | 110 | 8.0 | 16.0 | 0.00 | 0.00 | 0.00 | 13 | 1007.8 |
| 20260504001916 | 93 | 110 | 12.0 | 13.0 | 0.00 | 0.00 | 0.00 | 13 | 1007.8 |
| 20260504001415 | 93 | 110 | 9.0 | 13.0 | 0.00 | 0.00 | 0.00 | 13 | 1007.8 |
| 20260504000915 | 93 | 110 | 2.0 | 15.0 | 0.00 | 0.00 | 0.00 | 13 | 1007.9 |
| 20260504000416 | 93 | 110 | 10.0 | 17.0 | 0.00 | 0.00 | 0.00 | 13 | 1007.9 |
| 20260503235916 | 93 | 110 | 9.0 | 14.0 | 0.00 | 0.00 | 0.00 | 14 | 1007.9 |
| 20260503235415 | 93 | 110 | 4.0 | 11.0 | 0.00 | 0.00 | 0.00 | 13 | 1007.9 |
| 20260503234915 | 93 | 110 | 10.0 | 12.0 | 0.00 | 0.00 | 0.00 | 14 | 1008.0 |
| 20260503234417 | 93 | 110 | 3.0 | 9.0 | 0.00 | 0.00 | 0.00 | 14 | 1008.1 |
| 20260503233915 | 92 | 110 | 3.0 | 9.0 | 0.00 | 0.00 | 0.00 | 14 | 1008.0 |
| 20260503233416 | 92 | 110 | 3.0 | 13.0 | 0.00 | 0.00 | 0.00 | 14 | 1008.2 |
| 20260503232915 | 92 | 110 | 10.0 | 13.0 | 0.00 | 0.00 | 0.00 | 14 | 1008.3 |
| 20260503232417 | 93 | 110 | 10.0 | 14.0 | 0.00 | 0.00 | 0.00 | 13 | 1008.3 |
| 20260503231915 | 93 | 110 | 9.0 | 14.0 | 0.00 | 0.00 | 0.00 | 13 | 1008.3 |
| 20260503231415 | 93 | 110 | 7.0 | 17.0 | 0.00 | 0.00 | 0.00 | 14 | 1008.4 |
| 20260503230915 | 94 | 110 | 11.0 | 14.0 | 0.00 | 0.00 | 0.00 | 13 | 1008.4 |
| 20260503230415 | 94 | 110 | 4.0 | 10.0 | 0.00 | 0.00 | 0.00 | 13 | 1008.4 |
| 20260503225916 | 92 | 110 | 4.0 | 13.0 | 0.00 | 0.00 | 0.00 | 14 | 1008.6 |
| 20260503225416 | 93 | 110 | 7.0 | 14.0 | 0.00 | 0.00 | 0.00 | 13 | 1008.6 |
| 20260503224915 | 93 | 110 | 5.0 | 14.0 | 0.00 | 0.00 | 0.00 | 14 | 1008.9 |
| 20260503224415 | 93 | 110 | 8.0 | 11.0 | 0.00 | 0.00 | 0.00 | 14 | 1008.9 |
| 20260503223916 | 93 | 110 | 8.0 | 18.0 | 0.00 | 0.00 | 0.00 | 14 | 1008.9 |
| 20260503223416 | 93 | 110 | 2.0 | 13.0 | 0.00 | 0.00 | 0.00 | 14 | 1008.9 |
| 20260503222915 | 93 | 110 | 5.0 | 17.0 | 0.00 | 0.00 | 0.00 | 14 | 1009.0 |
| 20260503222415 | 94 | 110 | 13.0 | 13.0 | 0.00 | 0.00 | 0.00 | 14 | 1009.2 |
| 20260503221915 | 88 | 110 | 8.0 | 10.0 | 0.00 | 0.00 | 0.00 | 19 | 1009.1 |
| 20260503221415 | 88 | 110 | 10.0 | 16.0 | 0.00 | 0.00 | 0.00 | 19 | 1009.3 |
| 20260503220915 | 88 | 110 | 5.0 | 12.0 | 0.00 | 0.00 | 0.00 | 19 | 1009.4 |
| 20260503220415 | 88 | 110 | 4.0 | 16.0 | 0.00 | 0.00 | 0.00 | 19 | 1009.5 |
| 20260503215915 | 88 | 110 | 10.0 | 21.0 | 0.00 | 0.00 | 0.00 | 19 | 1009.4 |
| 20260503215415 | 88 | 110 | 8.0 | 15.0 | 0.00 | 0.00 | 0.00 | 19 | 1009.4 |
| 20260503214916 | 88 | 110 | 11.0 | 19.0 | 0.00 | 0.00 | 0.00 | 19 | 1009.6 |
| 20260503214417 | 88 | 110 | 10.0 | 14.0 | 0.00 | 0.00 | 0.00 | 19 | 1009.7 |
| 20260503213916 | 88 | 110 | 3.0 | 15.0 | 0.00 | 0.00 | 0.00 | 19 | 1009.9 |